Weather in Aksay

Russia / Volgograd Oblast     47°57′17″N   43°57′49″E
temp.,
°C
wind,
m/s
gust,
m/s
humid.,
%
clouds,
%
prec.,
mm/h
press.,
hPa
HPBL,
m
1 august, sun
sun100:00+27s23230 0.0 101013
03:00+24nnw11310 0.0 101011
06:00+27s11300 0.0 101112
09:00+33sse22190 0.0 1011888
12:00+35sse11160 0.0 10113639
15:00+36se11142 0.0 10103861
18:00+36se331510 0.0 10093230
21:00+30sse22218 0.0 101014
2 august, mon
mon200:00+29nnw33241 0.0 101016
03:00+27ese33240 0.0 101019
06:00+28ese22300 0.0 101124
09:00+34ese33290 0.0 1012898
12:00+36se332311 0.0 10103603
15:00+37sse441918 0.0 10093486
18:00+33wsw452896 0.6 1010904
21:00+30ene332822 1.6 101030
3 august, tue
tue300:00+28e333447 0.0 101030
03:00+27se46394 0.0 101085
06:00+27sse35314 0.0 101196
09:00+35s671738 0.0 1011782
12:00+38s661253 0.0 10103030
15:00+39s55100 0.0 10093611
18:00+38s45110 0.0 10081637
21:00+31s47161 0.0 100889
4 august, wed
wed400:00+31ssw491664 0.0 1008181
03:00+28w343032 0.0 100960
06:00+25n6952100 0.0 1010278
09:00+29n554186 0.1 1012607
12:00+34nw553099 0.0 10121743
15:00+34nw652791 0.0 10122332
18:00+32nw652849 0.0 10121569
21:00+28nnw510310 0.0 1014273
5 august, thu
thu500:00+25nne6134111 0.0 1015431
03:00+23nne4104596 0.0 1015297
06:00+23nne484785 0.0 1016324
09:00+28nne55360 0.0 10161321
12:00+31nne55250 0.0 10162476
15:00+32ne552199 0.0 10152800
18:00+31ene5522100 0.0 10151930
21:00+26ne34270 0.0 101543